Waarnemingen

Advertentie
Mijn weer
Gotska sandoen, Zweden (2589): temperatuur & dauwpunt: 15.02.2019 20:00:00 - 21.02.2019 20:00:00 (CET)Gotska sandoen, Zweden (2589): windsnelheid & windstoten: 15.02.2019 20:00:00 - 21.02.2019 20:00:00 (CET)Gotska sandoen, Zweden (2589): windrichting: 15.02.2019 20:00:00 - 21.02.2019 20:00:00 (CET)Gotska sandoen, Zweden (2589): luchtdruk: 15.02.2019 20:00:00 - 21.02.2019 20:00:00 (CET)Gotska sandoen, Zweden (2589): zicht: 15.02.2019 20:00:00 - 21.02.2019 20:00:00 (CET)Gotska sandoen, Zweden (2589): neerslag: 15.02.2019 20:00:00 - 21.02.2019 20:00:00 (CET)
Datum & Tijd tt [°C] td [°C] ff [km/u] ff [kn] fx [km/u] fx [kn] dd ppp [hPa] vv [km] rr [mm]
21.02.2019 20:00:00 - - - - - - - - - -
21.02.2019 19:00:00 -1,7 -11,3 24 13 42 23 O 1028,2 50 0,0
21.02.2019 18:00:00 -1,6 -11,7 21 11 38 21 O 1027,3 50 0,0
21.02.2019 17:00:00 -1,5 -11,1 21 12 35 19 O 1026,0 50 0,0
21.02.2019 16:00:00 -1,1 -9,2 18 10 32 18 O 1025,2 50 0,0
21.02.2019 15:00:00 -0,6 -9,2 15 8 32 17 O 1024,7 50 0,0
21.02.2019 14:00:00 -0,3 -9,0 12 7 32 17 O 1024,2 50 0,0
21.02.2019 13:00:00 -0,3 -9,2 17 9 27 15 O 1023,4 50 0,0
21.02.2019 12:00:00 0,1 -7,9 13 7 27 15 O 1023,3 50 0,0
21.02.2019 11:00:00 - - - - 26 14 - - - -
21.02.2019 10:00:00 -0,1 -7,8 13 7 25 14 O 1022,5 50 0,0
21.02.2019 09:00:00 -0,5 -7,7 13 7 25 14 O 1022,0 50 0,0
21.02.2019 08:00:00 -1,2 -7,1 13 7 26 14 O 1021,5 50 0,0
21.02.2019 07:00:00 -1,7 -7,2 9 5 29 16 O 1021,3 50 0,0
21.02.2019 06:00:00 -1,5 -7,8 14 7 29 16 ONO 1020,8 50 0,0
21.02.2019 05:00:00 -1,2 -7,3 15 8 26 14 ONO 1020,4 50 0,0
21.02.2019 04:00:00 -1,2 -7,1 12 7 25 13 NO 1020,6 50 0,0
21.02.2019 03:00:00 -1,3 -6,3 11 6 27 15 NO 1020,1 50 0,0
21.02.2019 02:00:00 -1,2 -6,2 13 7 28 15 NO 1020,0 50 0,0
21.02.2019 01:00:00 -1,2 -5,8 15 8 29 16 NO 1019,5 50 0,0
21.02.2019 00:00:00 -1,4 -5,4 14 8 29 16 NNO 1019,2 50 0,0
20.02.2019 23:00:00 -1,5 -5,4 12 7 29 16 NNO 1018,8 50 0,0
20.02.2019 22:00:00 -1,4 -5,4 14 8 33 18 NNO 1018,2 50 0,0
20.02.2019 21:00:00 -1,2 -5,7 12 7 33 18 NNO 1017,5 50 0,0
20.02.2019 20:00:00 -0,5 -5,3 16 8 32 17 NNO 1016,8 50 0,0
20.02.2019 19:00:00 -0,6 -4,4 14 8 31 17 NNO 1015,8 48 0,0
20.02.2019 18:00:00 -0,5 -4,1 15 8 34 18 N 1014,9 41 0,0
20.02.2019 17:00:00 -0,4 -3,8 14 8 37 20 N 1014,1 37 0,0
20.02.2019 16:00:00 0,3 -3,7 17 9 41 22 N 1013,0 33 0,0
20.02.2019 15:00:00 1,0 -4,2 19 10 44 24 N 1012,1 35 0,0
20.02.2019 14:00:00 1,6 -3,4 22 12 47 25 N 1010,8 36 0,0
20.02.2019 13:00:00 1,8 -3,7 26 14 55 30 N 1009,5 30 0,0
20.02.2019 12:00:00 2,1 -4,4 29 16 54 29 N 1008,1 30 0,0
20.02.2019 11:00:00 1,9 -4,4 29 16 58 31 N 1007,3 37 0,0
20.02.2019 10:00:00 1,3 -4,0 32 17 58 31 N 1006,2 47 0,0
20.02.2019 09:00:00 1,1 -3,4 32 17 54 29 N 1004,4 49 0,0
20.02.2019 08:00:00 1,3 -1,3 30 16 51 28 N 1002,6 50 0,0
20.02.2019 07:00:00 2,0 0,8 26 14 44 24 NW 1001,0 47 0,0
20.02.2019 06:00:00 2,2 1,2 24 13 44 24 WNW 999,6 40 0,0
20.02.2019 05:00:00 2,2 1,5 23 13 44 24 WNW 998,7 26 0,0
20.02.2019 04:00:00 2,3 1,4 22 12 47 25 WNW 997,8 20 0,0
20.02.2019 03:00:00 2,6 1,7 24 13 47 25 W 997,3 19 0,0
20.02.2019 02:00:00 3,1 2,1 25 13 47 25 W 996,8 22 0,0
20.02.2019 01:00:00 3,5 2,3 29 16 47 25 W 996,5 30 0,0
20.02.2019 00:00:00 3,5 2,3 28 15 45 24 W 996,4 40 0,0
19.02.2019 23:00:00 3,6 2,3 29 16 45 24 W 996,5 40 0,0
19.02.2019 22:00:00 3,7 2,4 29 16 51 28 W 996,5 48 0,0
19.02.2019 21:00:00 3,7 2,5 27 14 51 28 WZW 996,5 48 -
19.02.2019 20:00:00 3,8 3,0 32 18 54 29 W 996,8 35 0,0
19.02.2019 19:00:00 3,4 3,0 32 18 54 29 WZW 996,7 12 0,0
19.02.2019 18:00:00 3,5 3,2 29 16 47 25 WZW 997,0 8 0,0
19.02.2019 17:00:00 3,5 3,4 29 15 47 25 WZW 997,2 5 0,0
19.02.2019 16:00:00 3,4 3,3 28 15 45 24 WZW 997,8 2,5 0,0
19.02.2019 15:00:00 3,5 3,4 24 13 41 22 WZW 998,0 1,7 0,0
19.02.2019 14:00:00 3,5 3,4 22 12 41 22 WZW 998,8 1,0 0,4
19.02.2019 13:00:00 3,3 3,2 24 13 40 22 WZW 999,5 0,8 1,0
19.02.2019 12:00:00 3,2 3,1 23 12 39 21 WZW 1000,2 0,9 0,2
19.02.2019 11:00:00 3,1 3,0 21 11 39 21 WZW 1001,0 0,9 0,2
19.02.2019 10:00:00 3,2 2,9 23 12 39 21 WZW 1001,5 1,1 0,0
19.02.2019 09:00:00 3,5 3,1 16 9 36 19 ZW 1002,0 2,0 0,0
19.02.2019 08:00:00 3,4 3,0 18 10 36 20 ZZW 1002,7 2,3 0,0
19.02.2019 07:00:00 3,9 3,3 20 11 39 21 ZZW 1003,3 3,6 0,0
19.02.2019 06:00:00 3,9 3,5 17 9 40 22 ZW 1004,5 3,2 0,0
19.02.2019 05:00:00 4,2 3,9 22 12 40 22 ZW 1004,9 3,8 0,0
19.02.2019 04:00:00 3,9 3,8 15 8 36 19 ZW 1006,2 2,8 0,0
19.02.2019 03:00:00 3,3 3,2 18 10 39 21 ZW 1007,4 1,8 0,0
19.02.2019 02:00:00 3,1 3,0 24 13 39 21 ZW 1008,3 1,7 0,0
19.02.2019 01:00:00 2,9 2,8 21 11 45 25 ZW 1009,0 1,5 0,0
19.02.2019 00:00:00 2,5 2,3 29 16 47 25 ZW 1009,9 0,4 0,0
18.02.2019 23:00:00 2,4 2,3 27 15 47 25 ZW 1010,3 0,5 0,0
18.02.2019 22:00:00 2,3 2,2 26 14 47 25 ZW 1010,7 0,5 0,0
18.02.2019 21:00:00 2,5 2,4 24 13 50 27 ZW 1011,4 0,7 0,0
18.02.2019 20:00:00 2,8 2,7 27 15 50 27 ZW 1011,7 1,4 0,0
18.02.2019 19:00:00 3,2 2,8 25 14 42 23 ZW 1012,1 5 0,0
18.02.2019 18:00:00 2,8 2,2 18 10 43 23 ZW 1012,6 22 0,0
18.02.2019 17:00:00 2,9 1,9 24 13 47 26 ZZW 1012,8 38 0,0
18.02.2019 16:00:00 3,4 2,1 27 14 47 26 ZZW 1013,2 49 0,0
18.02.2019 15:00:00 4,3 2,5 24 13 46 25 ZZW 1013,8 45 0,0
18.02.2019 14:00:00 4,5 2,8 23 13 45 24 ZZW 1014,6 46 0,0
18.02.2019 13:00:00 4,2 3,3 24 13 45 24 ZZW 1015,5 20 0,0
18.02.2019 12:00:00 4,0 3,6 23 12 40 21 ZZW 1016,9 18 0,0
18.02.2019 11:00:00 2,8 2,7 21 11 40 21 ZZW 1017,7 2,9 0,0
18.02.2019 10:00:00 2,7 2,6 23 13 40 21 ZZW 1018,4 1,3 0,0
18.02.2019 09:00:00 2,5 2,4 21 11 37 20 ZZW 1019,0 0,9 0,0
18.02.2019 08:00:00 2,4 2,3 22 12 37 20 Z 1019,3 1,3 0,0
18.02.2019 07:00:00 2,6 2,5 17 9 31 17 Z 1019,5 1,1 0,0
18.02.2019 06:00:00 2,7 2,4 16 8 31 17 ZZW 1020,0 2,0 0,0
18.02.2019 05:00:00 3,0 2,1 19 10 31 17 ZZW 1020,4 15 0,0
18.02.2019 04:00:00 3,0 1,2 16 9 31 17 Z 1020,5 50 0,0
18.02.2019 03:00:00 2,6 0,7 14 8 24 13 Z 1021,1 48 0,0
18.02.2019 02:00:00 2,2 0,7 14 7 22 12 Z 1021,6 49 0,0
18.02.2019 01:00:00 1,1 -0,2 11 6 19 10 Z 1022,0 45 0,0
18.02.2019 00:00:00 1,7 0,2 10 6 16 9 ZZW 1022,0 49 0,0
17.02.2019 23:00:00 1,5 -0,9 8 5 15 8 Z 1022,0 50 0,0
17.02.2019 22:00:00 1,4 -1,0 8 5 13 7 Z 1022,1 43 0,0
17.02.2019 21:00:00 1,3 -1,3 7 4 14 8 Z 1022,1 45 0,0
17.02.2019 20:00:00 1,3 -1,6 4 2 9 5 ZZO 1021,9 48 0,0
17.02.2019 19:00:00 1,1 -1,5 5 3 9 5 OZO 1021,8 49 0,0
17.02.2019 18:00:00 1,3 -0,8 5 3 10 5 O 1021,7 47 0,0
17.02.2019 17:00:00 1,3 -0,6 5 3 10 5 ONO 1021,3 45 0,0
17.02.2019 16:00:00 2,0 -1,3 4 2 9 5 NW 1020,9 47 0,0
17.02.2019 15:00:00 2,6 -1,0 4 2 9 5 NNW 1020,8 50 0,0
17.02.2019 14:00:00 2,8 -0,7 6 3 10 6 N 1020,6 48 0,0
17.02.2019 13:00:00 2,9 -0,9 6 3 14 7 N 1020,4 42 0,0
17.02.2019 12:00:00 2,7 0,1 6 3 14 8 NNW 1020,1 42 0,0
17.02.2019 11:00:00 2,6 0,0 7 4 14 8 NNW 1019,5 47 0,0
17.02.2019 10:00:00 2,1 0,3 10 5 17 9 NNW 1019,1 36 0,0
17.02.2019 09:00:00 0,9 0,6 8 5 17 9 NNW 1018,7 29 0,0
17.02.2019 08:00:00 0,1 0,0 10 5 16 9 NNW 1018,1 9 0,0
17.02.2019 07:00:00 0,1 -0,2 11 6 18 10 NNW 1017,2 5 0,0
17.02.2019 06:00:00 0,7 0,4 11 6 19 11 NNW 1016,6 4,8 0,0
17.02.2019 05:00:00 1,3 1,0 11 6 20 11 NNW 1016,3 3,1 0,0
17.02.2019 04:00:00 1,6 1,3 10 5 23 13 NW 1015,8 3,4 0,0
17.02.2019 03:00:00 1,8 1,5 13 7 27 15 NNW 1015,2 3,9 0,0
17.02.2019 02:00:00 2,4 2,0 16 9 27 15 NW 1014,2 6 0,0
17.02.2019 01:00:00 2,4 1,9 14 8 29 16 NW 1013,7 5 0,0
17.02.2019 00:00:00 3,0 2,3 15 8 30 16 NW 1013,1 8 0,0
16.02.2019 23:00:00 3,4 2,4 18 10 38 20 NW 1012,3 8 0,0
16.02.2019 22:00:00 4,6 2,9 21 11 38 20 NW 1011,7 11 0,0
16.02.2019 21:00:00 4,4 2,4 16 9 42 23 WNW 1011,1 15 0,0
16.02.2019 20:00:00 4,9 2,3 21 12 49 26 W 1010,9 32 0,0
16.02.2019 19:00:00 4,9 1,7 33 18 56 30 W 1009,7 31 0,0
16.02.2019 18:00:00 6,0 1,3 38 21 56 30 WZW 1009,0 38 0,0
16.02.2019 17:00:00 5,2 1,3 36 20 54 29 WZW 1008,9 30 0,0
16.02.2019 16:00:00 4,8 1,6 32 17 54 29 WZW 1009,7 20 0,0
16.02.2019 15:00:00 4,9 1,6 32 18 52 28 WZW 1010,3 15 0,0
16.02.2019 14:00:00 5,5 1,2 32 17 50 27 WZW 1010,9 19 0,0
16.02.2019 13:00:00 5,4 1,3 31 17 51 27 WZW 1011,8 17 0,0
16.02.2019 12:00:00 5,5 1,2 30 16 58 31 WZW 1012,8 18 0,0
16.02.2019 11:00:00 5,1 1,0 34 19 58 31 WZW 1013,3 15 0,0
16.02.2019 10:00:00 4,9 1,0 34 18 51 28 WZW 1013,6 18 0,0
16.02.2019 09:00:00 4,3 0,6 33 18 50 27 WZW 1014,5 21 0,0
16.02.2019 08:00:00 3,8 0,5 30 16 50 27 WZW 1015,2 21 0,0
16.02.2019 07:00:00 3,4 0,6 30 16 49 27 WZW 1015,6 16 0,0
16.02.2019 06:00:00 3,6 0,6 31 17 48 26 WZW 1016,1 14 0,0
16.02.2019 05:00:00 3,5 0,9 31 17 48 26 WZW 1016,7 16 0,0
16.02.2019 04:00:00 3,4 1,0 28 15 48 26 WZW 1017,4 27 0,0
16.02.2019 03:00:00 3,4 1,0 30 16 45 24 WZW 1018,2 45 0,0
16.02.2019 02:00:00 3,2 1,4 26 14 43 23 WZW 1019,0 47 0,0
16.02.2019 01:00:00 3,4 1,4 27 14 43 23 WZW 1019,6 46 0,0
16.02.2019 00:00:00 3,8 1,3 26 14 42 23 WZW 1019,9 50 0,0
15.02.2019 23:00:00 3,8 1,3 28 15 40 22 WZW 1020,2 50 0,0
15.02.2019 22:00:00 3,6 1,6 25 13 39 21 WZW 1020,7 50 0,0
15.02.2019 21:00:00 4,2 2,1 23 12 40 21 WZW 1020,9 50 0,0
15.02.2019 20:00:00 4,1 2,6 25 14 40 21 WZW 1021,0 38 0,0

tt = temperatuur
td = dauwpunt
ff = windsnelheid
fx = windstoten
dd = windrichting
ppp = luchtdruk
vv = zicht
rr = neerslag

Weerstations in de omgeving